Overview Statistics Trail Chart Weather Telemetry Raw packets
 

This is the latest recevied weather packets stored in our database for station/object KI4NG. If no packets are shown the sender has not sent any weather packets the latest 10 day(s).

<< 22 23 24 25 26 27 28 >>
Time Temp. Humidity Pressure Rain* Wind** Luminosity Snow
1788468860 35° C 56% 1018.5 hPa 0 mm - 475 W/m² -
1788468555 35° C 55% 1018.7 hPa 0 mm - 490 W/m² -
1788468251 35° C 54% 1018.6 hPa 0 mm - 465 W/m² -
1788467947 35° C 53% 1018.8 hPa 0 mm - 526 W/m² -
1788467642 34.44° C 55% 1018.7 hPa 0 mm - 549 W/m² -
1788467341 34.44° C 56% 1018.6 hPa 0 mm - 521 W/m² -
1788467038 35° C 56% 1018.7 hPa 0 mm - 537 W/m² -
1788466737 35° C 54% 1018.9 hPa 0 mm - 564 W/m² -
1788466433 34.44° C 56% 1018.9 hPa 0 mm - 479 W/m² -
1788466131 34.44° C 54% 1018.9 hPa 0 mm - 531 W/m² -
1788465827 33.33° C 57% 1018.8 hPa 0 mm - 565 W/m² -
1788465522 33.33° C 58% 1019 hPa 0 mm - 211 W/m² -
1788465218 33.89° C 59% 1019.2 hPa 0 mm - 246 W/m² -
1788464912 33.89° C 59% 1019.2 hPa 0 mm - 564 W/m² -
1788464608 33.89° C 57% 1019.3 hPa 0 mm - 596 W/m² -
1788464304 33.33° C 58% 1019.2 hPa 0 mm - 541 W/m² -
1788464000 34.44° C 56% 1018.9 hPa 0 mm - 232 W/m² -
1788463695 36.11° C 52% 1019.3 hPa 0 mm - 729 W/m² -
1788463390 35.56° C 54% 1019.3 hPa 0 mm - 731 W/m² -
1788463087 35.56° C 53% 1019.2 hPa 0 mm - 759 W/m² -
1788462783 35.56° C 55% 1019.2 hPa 0 mm - 779 W/m² -
1788462482 35° C 55% 1019.4 hPa 0 mm - 701 W/m² -
1788462177 34.44° C 55% 1019.4 hPa 0 mm - 746 W/m² -
1788461871 34.44° C 55% 1019.4 hPa 0 mm - 752 W/m² -
1788461571 32.78° C 60% 1019.5 hPa 0 mm - 732 W/m² -

* Rain latest hour (hover to see other rain measurements)
** Current wind speed in m/s (hover to see current wind gust speed)